TimeMDT,TemperatureF,Dew PointF,Humidity,Sea Level PressureIn,VisibilityMPH,Wind Direction,Wind SpeedMPH,Gust SpeedMPH,PrecipitationIn,Events,Conditions,WindDirDegrees,DateUTC
12:53 AM,64.0,41.0,43,29.91,10.0,North,11.5,-,N/A,,Clear,350,2013-06-17 06:53:00
1:53 AM,55.9,42.1,60,29.92,10.0,East,6.9,-,N/A,,Clear,100,2013-06-17 07:53:00
2:53 AM,55.0,41.0,59,29.94,10.0,East,6.9,-,N/A,,Clear,80,2013-06-17 08:53:00
3:53 AM,55.0,42.1,62,29.97,10.0,North,6.9,-,N/A,,Clear,10,2013-06-17 09:53:00
4:53 AM,55.0,42.1,62,29.96,10.0,NE,5.8,-,N/A,,Partly Cloudy,40,2013-06-17 10:53:00
5:53 AM,54.0,44.1,69,30.01,10.0,North,3.5,-,N/A,,Clear,10,2013-06-17 11:53:00
6:53 AM,59.0,44.1,58,30.01,10.0,Calm,Calm,-,N/A,,Clear,0,2013-06-17 12:53:00
7:53 AM,61.0,45.0,56,30.04,10.0,East,3.5,-,N/A,,Clear,90,2013-06-17 13:53:00
8:53 AM,66.9,44.1,44,30.02,10.0,Calm,Calm,-,N/A,,Clear,0,2013-06-17 14:53:00
9:53 AM,72.0,43.0,35,30.00,10.0,Calm,Calm,-,N/A,,Clear,0,2013-06-17 15:53:00
10:53 AM,77.0,39.9,26,29.96,10.0,Variable,3.5,-,N/A,,Clear,0,2013-06-17 16:53:00
11:53 AM,79.0,37.0,22,29.94,10.0,Variable,4.6,-,N/A,,Clear,0,2013-06-17 17:53:00
12:53 PM,82.9,36.0,19,29.89,10.0,South,10.4,18.4,N/A,,Clear,190,2013-06-17 18:53:00
1:53 PM,84.9,36.0,17,29.89,10.0,SSW,16.1,24.2,N/A,,Partly Cloudy,210,2013-06-17 19:53:00
2:53 PM,78.1,34.0,20,29.94,10.0,WNW,15.0,25.3,0.00,,Mostly Cloudy,300,2013-06-17 20:53:00
3:14 PM,78.8,35.6,21,30.18,10.0,North,10.4,25.3,0.00,Rain,Light Rain,360,2013-06-17 21:14:00
3:53 PM,80.1,39.0,23,29.92,10.0,South,18.4,26.5,0.00,,Partly Cloudy,170,2013-06-17 21:53:00
4:01 PM,78.8,39.2,24,30.18,10.0,SSE,17.3,-,N/A,,Scattered Clouds,160,2013-06-17 22:01:00
4:53 PM,77.0,44.1,31,29.93,10.0,South,11.5,-,N/A,,Clear,190,2013-06-17 22:53:00
5:53 PM,77.0,41.0,28,29.91,10.0,SSW,5.8,-,N/A,,Clear,200,2013-06-17 23:53:00
6:35 PM,71.6,46.4,41,30.14,10.0,East,21.9,-,N/A,,Partly Cloudy,100,2013-06-18 00:35:00
6:53 PM,71.1,46.9,42,29.91,10.0,East,18.4,-,N/A,,Clear,90,2013-06-18 00:53:00
7:53 PM,68.0,44.1,42,29.95,10.0,NE,4.6,-,N/A,,Clear,40,2013-06-18 01:53:00
8:53 PM,64.0,46.9,54,29.96,10.0,NNE,15.0,-,N/A,,Mostly Cloudy,30,2013-06-18 02:53:00
9:53 PM,61.0,46.9,60,30.00,10.0,North,9.2,-,N/A,,Scattered Clouds,360,2013-06-18 03:53:00
10:53 PM,61.0,45.0,56,30.02,10.0,NNW,6.9,-,N/A,,Partly Cloudy,330,2013-06-18 04:53:00
11:53 PM,59.0,50.0,72,30.04,8.0,East,5.8,-,0.02,Rain,Light Rain,90,2013-06-18 05:53:00